Year,Month,Day,Hour,Minute,Value (Times are PST for temperature in C)
2008,05,09,00,00,7.60
2008,05,09,00,01,7.60
2008,05,09,00,02,7.60
2008,05,09,00,03,7.60
2008,05,09,00,04,7.50
2008,05,09,00,05,7.50
2008,05,09,00,06,7.50
2008,05,09,00,07,7.50
2008,05,09,00,08,7.40
2008,05,09,00,09,7.40
2008,05,09,00,10,7.40
2008,05,09,00,11,7.40
2008,05,09,00,12,7.40
2008,05,09,00,13,7.40
2008,05,09,00,14,7.40
2008,05,09,00,15,7.40
2008,05,09,00,16,7.40
2008,05,09,00,17,7.30
2008,05,09,00,18,7.30
2008,05,09,00,19,7.30
2008,05,09,00,20,7.30
2008,05,09,00,21,7.30
2008,05,09,00,22,7.30
2008,05,09,00,23,7.30
2008,05,09,00,24,7.30
2008,05,09,00,25,7.30
2008,05,09,00,26,7.30
2008,05,09,00,27,7.30
2008,05,09,00,28,7.30
2008,05,09,00,29,7.30
2008,05,09,00,30,7.30
2008,05,09,00,31,7.30
2008,05,09,00,32,7.30
2008,05,09,00,33,7.30
2008,05,09,00,34,7.30
2008,05,09,00,35,7.30
2008,05,09,00,36,7.30
2008,05,09,00,37,7.30
2008,05,09,00,38,7.30
2008,05,09,00,39,7.30
2008,05,09,00,40,7.30
2008,05,09,00,41,7.20
2008,05,09,00,42,7.20
2008,05,09,00,43,7.20
2008,05,09,00,44,7.20
2008,05,09,00,45,7.20
2008,05,09,00,46,7.20
2008,05,09,00,47,7.20
2008,05,09,00,48,7.20
2008,05,09,00,49,7.10
2008,05,09,00,50,7.10
2008,05,09,00,51,7.10
2008,05,09,00,52,7.10
2008,05,09,00,53,7.10
2008,05,09,00,54,7.10
2008,05,09,00,55,7.00
2008,05,09,00,56,7.00
2008,05,09,00,57,7.00
2008,05,09,00,58,7.00
2008,05,09,00,59,7.00
2008,05,09,01,00,7.00
2008,05,09,01,01,7.00
2008,05,09,01,02,7.00
2008,05,09,01,03,7.00
2008,05,09,01,04,7.00
2008,05,09,01,05,7.00
2008,05,09,01,06,7.00
2008,05,09,01,07,7.00
2008,05,09,01,08,7.10
2008,05,09,01,09,7.10
2008,05,09,01,10,7.10
2008,05,09,01,11,7.10
2008,05,09,01,12,7.10
2008,05,09,01,13,7.00
2008,05,09,01,14,7.00
2008,05,09,01,15,7.00
2008,05,09,01,16,7.00
2008,05,09,01,17,7.00
2008,05,09,01,18,7.00
2008,05,09,01,19,7.00
2008,05,09,01,20,7.00
2008,05,09,01,21,7.00
2008,05,09,01,22,7.00
2008,05,09,01,23,7.00
2008,05,09,01,24,7.00
2008,05,09,01,25,7.00
2008,05,09,01,26,7.00
2008,05,09,01,27,7.00
2008,05,09,01,28,7.00
2008,05,09,01,29,7.00
2008,05,09,01,30,7.00
2008,05,09,01,31,7.00
2008,05,09,01,32,7.00
2008,05,09,01,33,6.90
2008,05,09,01,34,6.90
2008,05,09,01,35,6.90
2008,05,09,01,36,6.90
2008,05,09,01,37,6.90
2008,05,09,01,38,6.90
2008,05,09,01,39,7.00
2008,05,09,01,40,7.00
2008,05,09,01,41,7.00
2008,05,09,01,42,7.00
2008,05,09,01,43,7.00
2008,05,09,01,44,7.00
2008,05,09,01,45,7.00
2008,05,09,01,46,7.00
2008,05,09,01,47,7.00
2008,05,09,01,48,7.00
2008,05,09,01,49,6.90
2008,05,09,01,50,6.90
2008,05,09,01,51,6.90
2008,05,09,01,52,6.90
2008,05,09,01,53,6.90
2008,05,09,01,54,6.90
2008,05,09,01,55,6.90
2008,05,09,01,56,6.90
2008,05,09,01,57,6.80
2008,05,09,01,58,6.80
2008,05,09,01,59,6.80
2008,05,09,02,00,6.80
2008,05,09,02,01,6.80
2008,05,09,02,02,6.80
2008,05,09,02,03,6.80
2008,05,09,02,04,6.80
2008,05,09,02,05,6.80
2008,05,09,02,06,6.80
2008,05,09,02,07,6.80
2008,05,09,02,08,6.80
2008,05,09,02,09,6.80
2008,05,09,02,10,6.80
2008,05,09,02,11,6.80
2008,05,09,02,12,6.80
2008,05,09,02,13,6.80
2008,05,09,02,14,6.80
2008,05,09,02,15,6.80
2008,05,09,02,16,6.80
2008,05,09,02,17,6.80
2008,05,09,02,18,6.80
2008,05,09,02,19,6.80
2008,05,09,02,20,6.80
2008,05,09,02,21,6.80
2008,05,09,02,22,6.80
2008,05,09,02,23,6.70
2008,05,09,02,24,6.70
2008,05,09,02,25,6.70
2008,05,09,02,26,6.70
2008,05,09,02,27,6.70
2008,05,09,02,28,6.70
2008,05,09,02,29,6.70
2008,05,09,02,30,6.70
2008,05,09,02,31,6.70
2008,05,09,02,32,6.70
2008,05,09,02,33,6.70
2008,05,09,02,34,6.70
2008,05,09,02,35,6.60
2008,05,09,02,36,6.60
2008,05,09,02,37,6.60
2008,05,09,02,38,6.60
2008,05,09,02,39,6.60
2008,05,09,02,40,6.60
2008,05,09,02,41,6.60
2008,05,09,02,42,6.60
2008,05,09,02,43,6.60
2008,05,09,02,44,6.60
2008,05,09,02,45,6.60
2008,05,09,02,46,6.60
2008,05,09,02,47,6.60
2008,05,09,02,48,6.60
2008,05,09,02,49,6.60
2008,05,09,02,50,6.60
2008,05,09,02,51,6.60
2008,05,09,02,52,6.60
2008,05,09,02,53,6.60
2008,05,09,02,54,6.40
2008,05,09,02,55,6.40
2008,05,09,02,56,6.40
2008,05,09,02,57,6.40
2008,05,09,02,58,6.40
2008,05,09,02,59,6.40
2008,05,09,03,00,6.40
2008,05,09,03,01,6.40
2008,05,09,03,02,6.40
2008,05,09,03,03,6.40
2008,05,09,03,04,6.40
2008,05,09,03,05,6.40
2008,05,09,03,06,6.40
2008,05,09,03,07,6.40
2008,05,09,03,08,6.40
2008,05,09,03,09,6.40
2008,05,09,03,10,6.40
2008,05,09,03,11,6.40
2008,05,09,03,12,6.40
2008,05,09,03,13,6.40
2008,05,09,03,14,6.40
2008,05,09,03,15,6.40
2008,05,09,03,16,6.40
2008,05,09,03,17,6.40
2008,05,09,03,18,6.40
2008,05,09,03,19,6.40
2008,05,09,03,20,6.40
2008,05,09,03,21,6.40
2008,05,09,03,22,6.40
2008,05,09,03,23,6.30
2008,05,09,03,24,6.30
2008,05,09,03,25,6.30
2008,05,09,03,26,6.30
2008,05,09,03,27,6.30
2008,05,09,03,28,6.30
2008,05,09,03,29,6.30
2008,05,09,03,30,6.30
2008,05,09,03,31,6.30
2008,05,09,03,32,6.30
2008,05,09,03,33,6.30
2008,05,09,03,34,6.30
2008,05,09,03,35,6.30
2008,05,09,03,36,6.30
2008,05,09,03,37,6.30
2008,05,09,03,38,6.30
2008,05,09,03,39,6.30
2008,05,09,03,40,6.30
2008,05,09,03,41,6.20
2008,05,09,03,42,6.20
2008,05,09,03,43,6.20
2008,05,09,03,44,6.20
2008,05,09,03,45,6.20
2008,05,09,03,46,6.20
2008,05,09,03,47,6.20
2008,05,09,03,48,6.20
2008,05,09,03,49,6.20
2008,05,09,03,50,6.20
2008,05,09,03,51,6.20
2008,05,09,03,52,6.20
2008,05,09,03,53,6.20
2008,05,09,03,54,6.20
2008,05,09,03,55,6.10
2008,05,09,03,56,6.10
2008,05,09,03,57,6.10
2008,05,09,03,58,6.10
2008,05,09,03,59,6.10
2008,05,09,04,00,6.10
2008,05,09,04,01,6.00
2008,05,09,04,02,6.00
2008,05,09,04,03,6.00
2008,05,09,04,04,6.00
2008,05,09,04,05,6.00
2008,05,09,04,06,6.00
2008,05,09,04,07,6.00
2008,05,09,04,08,6.00
2008,05,09,04,09,6.00
2008,05,09,04,10,5.90
2008,05,09,04,11,5.90
2008,05,09,04,12,5.90
2008,05,09,04,13,5.90
2008,05,09,04,14,5.90
2008,05,09,04,15,5.90
2008,05,09,04,16,5.80
2008,05,09,04,17,5.80
2008,05,09,04,18,5.80
2008,05,09,04,19,5.80
2008,05,09,04,20,5.70
2008,05,09,04,21,5.70
2008,05,09,04,22,5.70
2008,05,09,04,23,5.70
2008,05,09,04,24,5.70
2008,05,09,04,25,5.70
2008,05,09,04,26,5.70
2008,05,09,04,27,5.70
2008,05,09,04,28,5.70
2008,05,09,04,29,5.70
2008,05,09,04,30,5.70
2008,05,09,04,31,5.70
2008,05,09,04,32,5.70
2008,05,09,04,33,5.70
2008,05,09,04,34,5.70
2008,05,09,04,35,5.70
2008,05,09,04,36,5.60
2008,05,09,04,37,5.60
2008,05,09,04,38,5.60
2008,05,09,04,39,5.60
2008,05,09,04,40,5.60
2008,05,09,04,41,5.60
2008,05,09,04,42,5.60
2008,05,09,04,43,5.60
2008,05,09,04,44,5.50
2008,05,09,04,45,5.50
2008,05,09,04,46,5.50
2008,05,09,04,47,5.50
2008,05,09,04,48,5.50
2008,05,09,04,49,5.50
2008,05,09,04,50,5.50
2008,05,09,04,51,5.50
2008,05,09,04,52,5.50
2008,05,09,04,53,5.50
2008,05,09,04,54,5.50
2008,05,09,04,55,5.50
2008,05,09,04,56,5.50
2008,05,09,04,57,5.50
2008,05,09,04,58,5.50
2008,05,09,04,59,5.50
2008,05,09,05,00,5.40
2008,05,09,05,01,5.40
2008,05,09,05,02,5.40
2008,05,09,05,03,5.40
2008,05,09,05,04,5.40
2008,05,09,05,05,5.40
2008,05,09,05,06,5.40
2008,05,09,05,07,5.30
2008,05,09,05,08,5.30
2008,05,09,05,09,5.30
2008,05,09,05,10,5.30
2008,05,09,05,11,5.30
2008,05,09,05,12,5.30
2008,05,09,05,13,5.30
2008,05,09,05,14,5.30
2008,05,09,05,15,5.30
2008,05,09,05,16,5.30
2008,05,09,05,17,5.30
2008,05,09,05,18,5.30
2008,05,09,05,19,5.30
2008,05,09,05,20,5.30
2008,05,09,05,21,5.30
2008,05,09,05,22,5.30
2008,05,09,05,23,5.30
2008,05,09,05,24,5.20
2008,05,09,05,25,5.20
2008,05,09,05,26,5.20
2008,05,09,05,27,5.20
2008,05,09,05,28,5.20
2008,05,09,05,29,5.20
2008,05,09,05,30,5.10
2008,05,09,05,31,5.10
2008,05,09,05,32,5.10
2008,05,09,05,33,5.10
2008,05,09,05,34,5.10
2008,05,09,05,35,5.10
2008,05,09,05,36,5.10
2008,05,09,05,37,5.10
2008,05,09,05,38,5.10
2008,05,09,05,39,5.10
2008,05,09,05,40,5.10
2008,05,09,05,41,5.10
2008,05,09,05,42,5.10
2008,05,09,05,43,5.10
2008,05,09,05,44,5.10
2008,05,09,05,45,5.10
2008,05,09,05,46,5.10
2008,05,09,05,47,5.10
2008,05,09,05,48,5.10
2008,05,09,05,49,5.10
2008,05,09,05,50,5.10
2008,05,09,05,51,5.10
2008,05,09,05,52,5.10
2008,05,09,05,53,5.10
2008,05,09,05,54,5.10
2008,05,09,05,55,5.10
2008,05,09,05,56,5.10
2008,05,09,05,57,5.10
2008,05,09,05,58,5.10
2008,05,09,05,59,5.10
2008,05,09,06,00,5.10
2008,05,09,06,01,5.10
2008,05,09,06,02,5.00
2008,05,09,06,03,4.90
2008,05,09,06,04,4.90
2008,05,09,06,05,4.90
2008,05,09,06,06,4.90
2008,05,09,06,07,4.90
2008,05,09,06,08,4.90
2008,05,09,06,09,4.90
2008,05,09,06,10,4.90
2008,05,09,06,11,4.90
2008,05,09,06,12,4.90
2008,05,09,06,13,4.90
2008,05,09,06,14,4.90
2008,05,09,06,15,4.90
2008,05,09,06,16,4.90
2008,05,09,06,17,4.90
2008,05,09,06,18,4.90
2008,05,09,06,19,4.90
2008,05,09,06,20,4.90
2008,05,09,06,21,4.90
2008,05,09,06,22,4.90
2008,05,09,06,23,4.90
2008,05,09,06,24,4.90
2008,05,09,06,25,4.90
2008,05,09,06,26,4.90
2008,05,09,06,27,4.90
2008,05,09,06,28,4.90
2008,05,09,06,29,4.90
2008,05,09,06,30,4.90
2008,05,09,06,31,4.90
2008,05,09,06,32,4.90
2008,05,09,06,33,4.90
2008,05,09,06,34,4.90
2008,05,09,06,35,4.90
2008,05,09,06,36,4.90
2008,05,09,06,37,4.90
2008,05,09,06,38,4.90
2008,05,09,06,39,4.90
2008,05,09,06,40,4.90
2008,05,09,06,41,4.90
2008,05,09,06,42,4.90
2008,05,09,06,43,4.90
2008,05,09,06,44,4.90
2008,05,09,06,45,4.90
2008,05,09,06,46,4.90
2008,05,09,06,47,4.90
2008,05,09,06,48,4.90
2008,05,09,06,49,5.00
2008,05,09,06,50,5.10
2008,05,09,06,51,5.10
2008,05,09,06,52,5.10
2008,05,09,06,53,5.10
2008,05,09,06,54,5.10
2008,05,09,06,55,5.10
2008,05,09,06,56,5.10
2008,05,09,06,57,5.10
2008,05,09,06,58,5.10
2008,05,09,06,59,5.10
2008,05,09,07,00,5.10
2008,05,09,07,01,5.10
2008,05,09,07,02,5.10
2008,05,09,07,03,5.10
2008,05,09,07,04,5.20
2008,05,09,07,05,5.20
2008,05,09,07,06,5.20
2008,05,09,07,07,5.20
2008,05,09,07,08,5.30
2008,05,09,07,09,5.30
2008,05,09,07,10,5.30
2008,05,09,07,11,5.30
2008,05,09,07,12,5.30
2008,05,09,07,13,5.30
2008,05,09,07,14,5.30
2008,05,09,07,15,5.30
2008,05,09,07,16,5.30
2008,05,09,07,17,5.30
2008,05,09,07,18,5.30
2008,05,09,07,19,5.30
2008,05,09,07,20,5.40
2008,05,09,07,21,5.40
2008,05,09,07,22,5.40
2008,05,09,07,23,5.40
2008,05,09,07,24,5.40
2008,05,09,07,25,5.40
2008,05,09,07,26,5.50
2008,05,09,07,27,5.50
2008,05,09,07,28,5.50
2008,05,09,07,29,5.50
2008,05,09,07,30,5.60
2008,05,09,07,31,5.60
2008,05,09,07,32,5.60
2008,05,09,07,33,5.60
2008,05,09,07,34,5.60
2008,05,09,07,35,5.60
2008,05,09,07,36,5.70
2008,05,09,07,37,5.70
2008,05,09,07,38,5.70
2008,05,09,07,39,5.70
2008,05,09,07,40,5.70
2008,05,09,07,41,5.70
2008,05,09,07,42,5.70
2008,05,09,07,43,5.70
2008,05,09,07,44,5.80
2008,05,09,07,45,5.80
2008,05,09,07,46,5.90
2008,05,09,07,47,6.00
2008,05,09,07,48,6.10
2008,05,09,07,49,6.10
2008,05,09,07,50,6.20
2008,05,09,07,51,6.20
2008,05,09,07,52,6.20
2008,05,09,07,53,6.20
2008,05,09,07,54,6.20
2008,05,09,07,55,6.20
2008,05,09,07,56,6.30
2008,05,09,07,57,6.30
2008,05,09,07,58,6.30
2008,05,09,07,59,6.40
2008,05,09,08,00,6.40
2008,05,09,08,01,6.40
2008,05,09,08,02,6.40
2008,05,09,08,03,6.40
2008,05,09,08,04,6.40
2008,05,09,08,05,6.40
2008,05,09,08,06,6.50
2008,05,09,08,07,6.60
2008,05,09,08,08,6.60
2008,05,09,08,09,6.60
2008,05,09,08,10,6.60
2008,05,09,08,11,6.60
2008,05,09,08,12,6.70
2008,05,09,08,13,6.80
2008,05,09,08,14,6.80
2008,05,09,08,15,6.80
2008,05,09,08,16,6.80
2008,05,09,08,17,6.80
2008,05,09,08,18,6.90
2008,05,09,08,19,6.90
2008,05,09,08,20,7.00
2008,05,09,08,21,7.00
2008,05,09,08,22,7.10
2008,05,09,08,23,7.20
2008,05,09,08,24,7.20
2008,05,09,08,25,7.30
2008,05,09,08,26,7.30
2008,05,09,08,27,7.30
2008,05,09,08,28,7.40
2008,05,09,08,29,7.40
2008,05,09,08,30,7.50
2008,05,09,08,31,7.50
2008,05,09,08,32,7.50
2008,05,09,08,33,7.60
2008,05,09,08,34,7.60
2008,05,09,08,35,7.60
2008,05,09,08,36,7.60
2008,05,09,08,37,7.60
2008,05,09,08,38,7.60
2008,05,09,08,39,7.60
2008,05,09,08,40,7.60
2008,05,09,08,41,7.70
2008,05,09,08,42,7.80
2008,05,09,08,43,7.80
2008,05,09,08,44,7.90
2008,05,09,08,45,7.90
2008,05,09,08,46,7.90
2008,05,09,08,47,7.90
2008,05,09,08,48,8.00
2008,05,09,08,49,8.00
2008,05,09,08,50,8.00
2008,05,09,08,51,8.10
2008,05,09,08,52,8.20
2008,05,09,08,53,8.20
2008,05,09,08,54,8.20
2008,05,09,08,55,8.20
2008,05,09,08,56,8.30
2008,05,09,08,57,8.30
2008,05,09,08,58,8.30
2008,05,09,08,59,8.40
2008,05,09,09,00,8.40
2008,05,09,09,01,8.40
2008,05,09,09,02,8.50
2008,05,09,09,03,8.50
2008,05,09,09,04,8.60
2008,05,09,09,05,8.60
2008,05,09,09,06,8.70
2008,05,09,09,07,8.70
2008,05,09,09,08,8.80
2008,05,09,09,09,8.90
2008,05,09,09,10,8.90
2008,05,09,09,11,8.90
2008,05,09,09,12,8.90
2008,05,09,09,13,9.00
2008,05,09,09,14,9.00
2008,05,09,09,15,9.10
2008,05,09,09,16,9.10
2008,05,09,09,17,9.20
2008,05,09,09,18,9.20
2008,05,09,09,19,9.20
2008,05,09,09,20,9.30
2008,05,09,09,21,9.30
2008,05,09,09,22,9.40
2008,05,09,09,23,9.40
2008,05,09,09,24,9.50
2008,05,09,09,25,9.50
2008,05,09,09,26,9.50
2008,05,09,09,27,9.60
2008,05,09,09,28,9.60
2008,05,09,09,29,9.60
2008,05,09,09,30,9.70
2008,05,09,09,31,9.70
2008,05,09,09,32,9.70
2008,05,09,09,33,9.80
2008,05,09,09,34,9.90
2008,05,09,09,35,9.90
2008,05,09,09,36,9.90
2008,05,09,09,37,9.90
2008,05,09,09,38,9.90
2008,05,09,09,39,9.90
2008,05,09,09,40,9.90
2008,05,09,09,41,10.10
2008,05,09,09,42,10.10
2008,05,09,09,43,10.10
2008,05,09,09,44,10.20
2008,05,09,09,45,10.20
2008,05,09,09,46,10.20
2008,05,09,09,47,10.30
2008,05,09,09,48,10.40
2008,05,09,09,49,10.40
2008,05,09,09,50,10.40
2008,05,09,09,51,10.50
2008,05,09,09,52,10.60
2008,05,09,09,53,10.60
2008,05,09,09,54,10.60
2008,05,09,09,55,10.60
2008,05,09,09,56,10.60
2008,05,09,09,57,10.60
2008,05,09,09,58,10.60
2008,05,09,09,59,10.60
2008,05,09,10,00,10.60
2008,05,09,10,01,10.60
2008,05,09,10,02,10.70
2008,05,09,10,03,10.80
2008,05,09,10,04,10.80
2008,05,09,10,05,10.90
2008,05,09,10,06,10.90
2008,05,09,10,07,10.80
2008,05,09,10,08,10.90
2008,05,09,10,09,10.90
2008,05,09,10,10,10.90
2008,05,09,10,11,10.90
2008,05,09,10,12,10.90
2008,05,09,10,13,10.90
2008,05,09,10,14,10.90
2008,05,09,10,15,10.90
2008,05,09,10,16,10.80
2008,05,09,10,17,10.80
2008,05,09,10,18,10.70
2008,05,09,10,19,10.80
2008,05,09,10,20,10.80
2008,05,09,10,21,10.90
2008,05,09,10,22,10.90
2008,05,09,10,23,11.00
2008,05,09,10,24,11.10
2008,05,09,10,25,11.10
2008,05,09,10,26,10.90
2008,05,09,10,27,10.80
2008,05,09,10,28,10.80
2008,05,09,10,29,10.80
2008,05,09,10,30,10.80
2008,05,09,10,31,10.90
2008,05,09,10,32,10.90
2008,05,09,10,33,10.80
2008,05,09,10,34,10.90
2008,05,09,10,35,10.70
2008,05,09,10,36,10.60
2008,05,09,10,37,10.60
2008,05,09,10,38,10.60
2008,05,09,10,39,10.60
2008,05,09,10,40,10.60
2008,05,09,10,41,10.40
2008,05,09,10,42,10.30
2008,05,09,10,43,10.30
2008,05,09,10,44,10.40
2008,05,09,10,45,10.40
2008,05,09,10,46,10.50
2008,05,09,10,47,10.60
2008,05,09,10,48,10.60
2008,05,09,10,49,10.60
2008,05,09,10,50,10.60
2008,05,09,10,51,10.70
2008,05,09,10,52,10.80
2008,05,09,10,53,10.80
2008,05,09,10,54,10.60
2008,05,09,10,55,10.60
2008,05,09,10,56,10.70
2008,05,09,10,57,10.80
2008,05,09,10,58,10.90
2008,05,09,10,59,10.80
2008,05,09,11,00,10.70
2008,05,09,11,01,10.70
2008,05,09,11,02,10.70
2008,05,09,11,03,10.90
2008,05,09,11,04,11.00
2008,05,09,11,05,11.00
2008,05,09,11,06,10.90
2008,05,09,11,07,10.90
2008,05,09,11,08,10.90
2008,05,09,11,09,10.90
2008,05,09,11,10,10.90
2008,05,09,11,11,10.90
2008,05,09,11,12,10.90
2008,05,09,11,13,10.80
2008,05,09,11,14,10.80
2008,05,09,11,15,10.70
2008,05,09,11,16,10.80
2008,05,09,11,17,10.70
2008,05,09,11,18,10.80
2008,05,09,11,19,10.80
2008,05,09,11,20,10.80
2008,05,09,11,21,10.80
2008,05,09,11,22,10.80
2008,05,09,11,23,10.90
2008,05,09,11,24,11.00
2008,05,09,11,25,11.20
2008,05,09,11,26,11.40
2008,05,09,11,27,11.40
2008,05,09,11,28,11.40
2008,05,09,11,29,11.40
2008,05,09,11,30,11.40
2008,05,09,11,31,11.40
2008,05,09,11,32,11.40
2008,05,09,11,33,11.40
2008,05,09,11,34,11.40
2008,05,09,11,35,11.40
2008,05,09,11,36,11.40
2008,05,09,11,37,11.30
2008,05,09,11,38,11.30
2008,05,09,11,39,11.40
2008,05,09,11,40,11.40
2008,05,09,11,41,11.40
2008,05,09,11,42,11.30
2008,05,09,11,43,11.20
2008,05,09,11,44,11.20
2008,05,09,11,45,11.30
2008,05,09,11,46,11.30
2008,05,09,11,47,11.30
2008,05,09,11,48,11.30
2008,05,09,11,49,11.40
2008,05,09,11,50,11.50
2008,05,09,11,51,11.60
2008,05,09,11,52,11.60
2008,05,09,11,53,11.40
2008,05,09,11,54,11.40
2008,05,09,11,55,11.20
2008,05,09,11,56,11.10
2008,05,09,11,57,11.00
2008,05,09,11,58,10.90
2008,05,09,11,59,11.00
2008,05,09,12,00,11.10
2008,05,09,12,01,11.10
2008,05,09,12,02,11.00
2008,05,09,12,03,10.90
2008,05,09,12,04,10.80
2008,05,09,12,05,10.70
2008,05,09,12,06,10.60
2008,05,09,12,07,10.70
2008,05,09,12,08,10.80
2008,05,09,12,09,10.80
2008,05,09,12,10,10.70
2008,05,09,12,11,10.80
2008,05,09,12,12,10.90
2008,05,09,12,13,10.90
2008,05,09,12,14,11.10
2008,05,09,12,15,11.20
2008,05,09,12,16,11.20
2008,05,09,12,17,11.20
2008,05,09,12,18,11.10
2008,05,09,12,19,11.10
2008,05,09,12,20,11.00
2008,05,09,12,21,10.90
2008,05,09,12,22,11.00
2008,05,09,12,23,11.10
2008,05,09,12,24,11.40
2008,05,09,12,25,11.60
2008,05,09,12,26,11.40
2008,05,09,12,27,11.40
2008,05,09,12,28,11.40
2008,05,09,12,29,11.30
2008,05,09,12,30,11.30
2008,05,09,12,31,11.30
2008,05,09,12,32,11.30
2008,05,09,12,33,11.20
2008,05,09,12,34,11.20
2008,05,09,12,35,11.20
2008,05,09,12,36,11.20
2008,05,09,12,37,11.30
2008,05,09,12,38,11.40
2008,05,09,12,39,11.50
2008,05,09,12,40,11.60
2008,05,09,12,41,11.70
2008,05,09,12,42,11.80
2008,05,09,12,43,11.80
2008,05,09,12,44,11.90
2008,05,09,12,45,12.10
2008,05,09,12,46,12.20
2008,05,09,12,47,12.10
2008,05,09,12,48,12.00
2008,05,09,12,49,11.90
2008,05,09,12,50,11.80
2008,05,09,12,51,11.80
2008,05,09,12,52,11.70
2008,05,09,12,53,11.60
2008,05,09,12,54,11.60
2008,05,09,12,55,11.70
2008,05,09,12,56,11.70
2008,05,09,12,57,11.60
2008,05,09,12,58,11.70
2008,05,09,12,59,11.80
2008,05,09,13,00,11.80
2008,05,09,13,01,11.90
2008,05,09,13,02,11.90
2008,05,09,13,03,11.90
2008,05,09,13,04,11.80
2008,05,09,13,05,11.70
2008,05,09,13,06,11.70
2008,05,09,13,07,11.60
2008,05,09,13,08,11.60
2008,05,09,13,09,11.80
2008,05,09,13,10,11.80
2008,05,09,13,11,12.00
2008,05,09,13,12,12.00
2008,05,09,13,13,12.00
2008,05,09,13,14,12.00
2008,05,09,13,15,12.10
2008,05,09,13,16,12.20
2008,05,09,13,17,12.30
2008,05,09,13,18,12.30
2008,05,09,13,19,12.40
2008,05,09,13,20,12.30
2008,05,09,13,21,12.40
2008,05,09,13,22,12.40
2008,05,09,13,23,12.40
2008,05,09,13,24,12.40
2008,05,09,13,25,12.30
2008,05,09,13,26,12.40
2008,05,09,13,27,12.50
2008,05,09,13,28,12.60
2008,05,09,13,29,12.60
2008,05,09,13,30,12.80
2008,05,09,13,31,12.80
2008,05,09,13,32,12.80
2008,05,09,13,33,12.80
2008,05,09,13,34,12.70
2008,05,09,13,35,12.70
2008,05,09,13,36,12.70
2008,05,09,13,37,12.70
2008,05,09,13,38,12.70
2008,05,09,13,39,12.60
2008,05,09,13,40,12.60
2008,05,09,13,41,12.60
2008,05,09,13,42,12.60
2008,05,09,13,43,12.50
2008,05,09,13,44,12.50
2008,05,09,13,45,12.50
2008,05,09,13,46,12.40
2008,05,09,13,47,12.30
2008,05,09,13,48,12.30
2008,05,09,13,49,12.30
2008,05,09,13,50,12.40
2008,05,09,13,51,12.50
2008,05,09,13,52,12.50
2008,05,09,13,53,12.50
2008,05,09,13,54,12.60
2008,05,09,13,55,12.60
2008,05,09,13,56,12.50
2008,05,09,13,57,12.50
2008,05,09,13,58,12.40
2008,05,09,13,59,12.40
2008,05,09,14,00,12.40
2008,05,09,14,01,12.50
2008,05,09,14,02,12.50
2008,05,09,14,03,12.40
2008,05,09,14,04,12.30
2008,05,09,14,05,12.30
2008,05,09,14,06,12.40
2008,05,09,14,07,12.50
2008,05,09,14,08,12.60
2008,05,09,14,09,12.60
2008,05,09,14,10,12.50
2008,05,09,14,11,12.50
2008,05,09,14,12,12.50
2008,05,09,14,13,12.60
2008,05,09,14,14,12.60
2008,05,09,14,15,12.60
2008,05,09,14,16,12.70
2008,05,09,14,17,12.80
2008,05,09,14,18,12.90
2008,05,09,14,19,13.00
2008,05,09,14,20,13.10
2008,05,09,14,21,13.00
2008,05,09,14,22,13.00
2008,05,09,14,23,13.00
2008,05,09,14,24,13.10
2008,05,09,14,25,13.10
2008,05,09,14,26,13.10
2008,05,09,14,27,13.10
2008,05,09,14,28,13.20
2008,05,09,14,29,13.20
2008,05,09,14,30,13.30
2008,05,09,14,31,13.30
2008,05,09,14,32,13.30
2008,05,09,14,33,13.20
2008,05,09,14,34,13.00
2008,05,09,14,35,13.00
2008,05,09,14,36,13.00
2008,05,09,14,37,13.10
2008,05,09,14,38,13.20
2008,05,09,14,39,13.20
2008,05,09,14,40,13.00
2008,05,09,14,41,13.00
2008,05,09,14,42,13.10
2008,05,09,14,43,13.00
2008,05,09,14,44,12.90
2008,05,09,14,45,12.80
2008,05,09,14,46,12.90
2008,05,09,14,47,12.90
2008,05,09,14,48,12.80
2008,05,09,14,49,12.80
2008,05,09,14,50,12.80
2008,05,09,14,51,12.80
2008,05,09,14,52,12.90
2008,05,09,14,53,12.80
2008,05,09,14,54,12.90
2008,05,09,14,55,12.90
2008,05,09,14,56,12.90
2008,05,09,14,57,13.00
2008,05,09,14,58,12.90
2008,05,09,14,59,13.00
2008,05,09,15,00,13.10
2008,05,09,15,01,13.00
2008,05,09,15,02,13.00
2008,05,09,15,03,13.00
2008,05,09,15,04,13.00
2008,05,09,15,05,13.00
2008,05,09,15,06,13.00
2008,05,09,15,07,12.90
2008,05,09,15,08,12.70
2008,05,09,15,09,12.60
2008,05,09,15,10,12.50
2008,05,09,15,11,12.50
2008,05,09,15,12,12.50
2008,05,09,15,13,12.60
2008,05,09,15,14,12.70
2008,05,09,15,15,12.80
2008,05,09,15,16,12.90
2008,05,09,15,17,13.00
2008,05,09,15,18,13.10
2008,05,09,15,19,13.10
2008,05,09,15,20,13.00
2008,05,09,15,21,13.00
2008,05,09,15,22,12.90
2008,05,09,15,23,12.90
2008,05,09,15,24,12.80
2008,05,09,15,25,12.70
2008,05,09,15,26,12.60
2008,05,09,15,27,12.60
2008,05,09,15,28,12.60
2008,05,09,15,29,12.80
2008,05,09,15,30,12.80
2008,05,09,15,31,12.80
2008,05,09,15,32,12.70
2008,05,09,15,33,12.80
2008,05,09,15,34,12.80
2008,05,09,15,35,12.80
2008,05,09,15,36,12.80
2008,05,09,15,37,12.80
2008,05,09,15,38,12.80
2008,05,09,15,39,12.80
2008,05,09,15,40,12.70
2008,05,09,15,41,12.80
2008,05,09,15,42,12.80
2008,05,09,15,43,12.80
2008,05,09,15,44,12.80
2008,05,09,15,45,12.80
2008,05,09,15,46,12.80
2008,05,09,15,47,12.90
2008,05,09,15,48,12.80
2008,05,09,15,49,12.80
2008,05,09,15,50,12.80
2008,05,09,15,51,12.80
2008,05,09,15,52,12.80
2008,05,09,15,53,12.90
2008,05,09,15,54,13.00
2008,05,09,15,55,13.10
2008,05,09,15,56,13.20
2008,05,09,15,57,13.10
2008,05,09,15,58,13.10
2008,05,09,15,59,13.10
2008,05,09,16,00,13.10
2008,05,09,16,01,13.00
2008,05,09,16,02,12.90
2008,05,09,16,03,12.80
2008,05,09,16,04,12.90
2008,05,09,16,05,13.00
2008,05,09,16,06,13.00
2008,05,09,16,07,13.10
2008,05,09,16,08,13.00
2008,05,09,16,09,13.00
2008,05,09,16,10,12.90
2008,05,09,16,11,12.80
2008,05,09,16,12,12.90
2008,05,09,16,13,12.90
2008,05,09,16,14,12.80
2008,05,09,16,15,12.70
2008,05,09,16,16,12.80
2008,05,09,16,17,12.80
2008,05,09,16,18,12.80
2008,05,09,16,19,12.80
2008,05,09,16,20,12.80
2008,05,09,16,21,12.80
2008,05,09,16,22,12.80
2008,05,09,16,23,13.00
2008,05,09,16,24,13.00
2008,05,09,16,25,13.10
2008,05,09,16,26,13.00
2008,05,09,16,27,13.00
2008,05,09,16,28,13.00
2008,05,09,16,29,13.00
2008,05,09,16,30,13.00
2008,05,09,16,31,13.10
2008,05,09,16,32,13.20
2008,05,09,16,33,13.30
2008,05,09,16,34,13.50
2008,05,09,16,35,13.60
2008,05,09,16,36,13.60
2008,05,09,16,37,13.60
2008,05,09,16,38,13.50
2008,05,09,16,39,13.50
2008,05,09,16,40,13.60
2008,05,09,16,41,13.50
2008,05,09,16,42,13.40
2008,05,09,16,43,13.40
2008,05,09,16,44,13.40
2008,05,09,16,45,13.40
2008,05,09,16,46,13.30
2008,05,09,16,47,13.30
2008,05,09,16,48,13.30
2008,05,09,16,49,13.20
2008,05,09,16,50,13.20
2008,05,09,16,51,13.20
2008,05,09,16,52,13.10
2008,05,09,16,53,13.00
2008,05,09,16,54,13.00
2008,05,09,16,55,13.00
2008,05,09,16,56,12.90
2008,05,09,16,57,13.00
2008,05,09,16,58,12.90
2008,05,09,16,59,12.90
2008,05,09,17,00,12.90
2008,05,09,17,01,12.90
2008,05,09,17,02,12.90
2008,05,09,17,03,12.80
2008,05,09,17,04,12.90
2008,05,09,17,05,12.90
2008,05,09,17,06,12.90
2008,05,09,17,07,12.90
2008,05,09,17,08,13.00
2008,05,09,17,09,13.10
2008,05,09,17,10,13.10
2008,05,09,17,11,13.20
2008,05,09,17,12,13.20
2008,05,09,17,13,13.20
2008,05,09,17,14,13.20
2008,05,09,17,15,13.20
2008,05,09,17,16,13.30
2008,05,09,17,17,13.30
2008,05,09,17,18,13.30
2008,05,09,17,19,13.30
2008,05,09,17,20,13.30
2008,05,09,17,21,13.40
2008,05,09,17,22,13.40
2008,05,09,17,23,13.50
2008,05,09,17,24,13.50
2008,05,09,17,25,13.60
2008,05,09,17,26,13.50
2008,05,09,17,27,13.40
2008,05,09,17,28,13.30
2008,05,09,17,29,13.20
2008,05,09,17,30,13.20
2008,05,09,17,31,13.20
2008,05,09,17,32,13.30
2008,05,09,17,33,13.30
2008,05,09,17,34,13.30
2008,05,09,17,35,13.30
2008,05,09,17,36,13.30
2008,05,09,17,37,13.30
2008,05,09,17,38,13.30
2008,05,09,17,39,13.30
2008,05,09,17,40,13.30
2008,05,09,17,41,13.30
2008,05,09,17,42,13.30
2008,05,09,17,43,13.20
2008,05,09,17,44,13.10